Dewpoint
-1 -1 -2 -3 -4 -4 -5 -7 -7 -8 -7 -7 -8 -9 -10 -12 -14 -18 -19 -19 -17 -14 -9 -13 -9 -11 -1 3 5 8 5 6 6 7 3 6 6 9 10 13 11 13 13 11 13
-1 -2 -3 -4 -4 -5 -4 -5 -8 -10 -10 -9 -8 -8 -9 -10 -12 -15 -19 -20 -19 -16 -10 -13 -2 2 2 2 2 2 4 3 3 3 0 5 6 8 11 11 14 14 14 12 12
-3 -3 -4 -5 -6 -6 -5 -4 -6 -9 -9 -12 -10 -8 -9 -11 -10 -2 -12 -21 -19 -17 -14 -13 -2 1 -1 -2 -2 1 1 -1 -1 -1 -4 3 6 8 11 11 13 14 14 12 11
-5 -4 -5 -6 -7 -7 -6 -5 -7 -9 -11 -14 -13 -10 -9 -10 -1 -2 -6 -21 -18 -12 -11 -12 -4 -1 -2 -4 -5 -4 -3 -3 -4 -8 -4 5 8 9 10 9 10 10 12 14 13
-7 -7 -7 -8 -9 -9 -7 -5 -8 -10 -10 -17 -16 -11 -10 -11 -3 -7 -9 -21 -18 -13 -11 -12 -0 1 -1 -4 -6 -5 -4 -1 -3 -10 1 6 8 9 9 11 9 12 13 14 14
-10 -10 -10 -11 -11 -10 -8 -5 -7 -9 -6 -18 -16 -13 -12 1 0 -2 -9 -14 -13 -12 -14 -6 -1 -1 -2 -6 -7 -5 -2 -1 -8 -9 -5 2 3 7 11 11 12 13 14 14 14
-14 -14 -14 -14 -14 -12 -8 -5 -3 -8 -7 -18 -14 -12 -15 -5 -1 -5 -8 -9 -13 -16 -17 -5 -0 -2 -3 -4 -5 -1 -1 -5 -8 -9 -5 2 6 8 11 12 14 15 15 15 15
-19 -18 -18 -18 -17 -14 -8 -4 -2 -7 -6 -13 -15 -13 -9 0 -0 -6 -9 -10 -13 -16 -7 -3 -2 -3 -4 -4 -3 -3 -5 -5 -8 -8 -6 1 5 11 12 12 15 15 15 15 14
-22 -22 -22 -21 -20 -16 -6 -2 -3 -7 -6 -8 -14 -2 1 1 -0 -6 -10 -13 -15 -12 -8 -4 -3 -4 -3 -2 -2 -4 -3 -3 -5 -8 -4 3 7 10 12 12 13 14 15 15 14
-24 -24 -25 -24 -23 -17 -3 -1 1 -2 -6 -2 -10 3 2 -2 -2 -2 -2 -2 -2 -2 -3 -3 -4 -5 -4 -2 -2 -3 -3 -4 -4 -7 -2 6 7 8 11 12 12 13 13 14 14
-25 -25 -26 -26 -25 -16 -1 -1 -3 -1 -2 -4 -11 -2 1 -1 -2 -2 -2 -2 -2 -3 -2 -4 -3 -2 -4 -4 -4 -3 -2 -4 -6 -8 1 6 8 10 11 11 11 12 12 13 13
-25 -25 -26 -26 -25 -14 -1 -0 -0 -1 -1 -3 -3 -5 -3 -3 -3 -4 -2 -4 -3 -3 -4 -4 -1 -3 -3 -4 -3 -2 -3 -4 -5 -5 -2 7 8 11 12 11 12 12 12 12 12
-24 -25 -26 -26 -25 -9 -0 1 -1 -1 -2 -3 -3 -6 -6 -5 -4 -5 -3 -3 -4 -3 -5 -4 -6 -5 -3 -4 -4 -5 -4 -4 -4 -5 -2 4 6 12 11 12 13 13 13 12 11
-23 -24 -25 -26 -19 -3 -2 0 -1 -1 -1 -3 -2 -5 -5 -4 -4 -6 -3 -5 -5 -3 -4 -4 -5 -5 -5 -4 -6 -5 -6 -6 -6 -5 -1 -1 10 2 10 12 12 13 14 14 13
-21 -22 -25 -25 -26 -21 -2 -0 -1 -2 0 -3 -3 -5 -5 -6 -7 -7 -4 -5 -4 -4 -7 -6 -7 -6 -6 -5 -6 -5 -6 -4 -5 -4 -4 -3 -3 0 9 12 12 12 14 15 13
-20 -20 -23 -24 -26 -26 -12 -0 -1 -0 2 -1 -5 -5 -6 -6 -8 -7 -6 -5 -6 -5 -7 -6 -8 -7 -6 -5 -6 -5 -4 -2 -0 -1 0 -2 -1 -0 10 11 11 11 13 15 15
-20 -20 -22 -24 -26 -12 -5 -1 1 3 -3 -2 -7 -7 -5 -6 -6 -8 -5 -6 -6 -6 -6 -7 -7 -7 -7 -5 -5 -5 -2 1 -1 3 3 -0 1 1 -0 6 10 11 13 14 14
-20 -20 -22 -26 -26 -18 -10 0 4 -1 -0 -5 -9 -7 -5 -7 -6 -7 -7 -4 -7 -7 -5 -5 -4 -6 -7 -7 -4 -3 -3 1 2 2 1 0 5 4 3 4 7 11 11 12 12
-21 -21 -23 -26 -26 -24 -1 3 1 1 -1 -6 -8 -6 -6 -8 -7 -7 -7 -6 -7 -8 -7 -5 -4 -5 -6 -5 -4 -2 -1 -3 1 -1 1 1 3 3 6 8 10 10 11 11 9
-22 -21 -15 -11 -23 -23 -1 1 1 -1 -5 -6 -4 -7 -5 -7 -8 -7 -6 -8 -8 -8 -9 -6 -2 -4 -4 -5 -4 -4 -4 -1 -0 1 2 1 4 6 7 8 10 10 10 10 9
-21 -20 -2 -13 -21 -4 -2 -3 -2 -4 -6 -6 -4 -4 -6 -4 -8 -7 -7 -8 -9 -8 -8 -5 -4 -3 -4 -3 -2 -2 -1 -0 -1 -1 2 4 3 3 4 7 8 9 9 9 9
-16 -15 -2 -3 -1 -2 -1 -2 -4 -5 -8 -8 -7 -6 -5 -6 -3 -3 -4 -5 -3 -7 -6 -5 -3 -1 -2 -3 -3 -3 -2 -1 3 2 2 2 2 -1 2 5 6 8 9 9 9
-6 -12 -0 0 -1 -2 -3 -5 -5 -6 -8 -8 -6 -7 -8 -7 -6 -5 -2 -2 -2 -5 -3 -3 -2 0 0 -2 -4 -1 0 -0 1 1 4 4 3 1 4 4 5 8 8 9 9
-3 3 1 -2 0 -3 -2 -3 -4 -4 -8 -6 -5 -4 -4 -3 -3 -4 -1 -2 -2 2 -1 -1 -1 -1 -1 0 -2 -1 -1 1 1 4 3 3 2 -0 6 7 8 8 8 8 8
3 5 2 3 2 1 -2 -1 1 -2 -4 -6 -6 -4 -4 -3 -0 1 0 -1 -2 -2 -3 -3 0 0 -0 -1 -3 -2 -1 -1 -2 -1 1 -1 1 -2 -1 7 8 8 8 8 8
2 3 2 1 1 -1 -1 -1 -1 -1 -3 -3 -2 1 -4 -3 -3 1 -0 -1 -1 -2 -3 -3 1 -1 0 1 -1 -0 0 -1 -1 -2 -1 -3 -2 -3 -3 6 8 8 8 8 8
-1 1 3 0 1 -0 1 -0 -1 -1 -1 0 1 1 2 1 0 -0 -0 -1 -1 -1 -1 -1 0 0 1 2 1 2 1 1 -1 -2 -2 0 -1 2 7 9 8 8 8 8 7
Wind_Speed
17 18 19 20 21 20 12 11 12 8 8 9 9 9 9 10 11 14 16 13 14 9 6 4 2 2 3 4 3 2 4 4 2 2 1 10 5 11 4 13 3 1 14 25 33
17 18 19 20 21 21 15 13 12 8 7 7 8 9 8 8 11 14 10 11 12 15 8 3 3 4 3 3 2 4 4 4 6 5 1 9 11 12 5 8 6 16 17 30 33
17 18 19 20 20 21 18 15 13 9 6 6 6 8 7 6 7 2 4 13 14 15 11 6 4 2 3 2 1 2 2 3 9 10 8 14 7 8 13 3 10 27 31 33 34
18 19 19 20 20 21 20 18 14 8 6 5 5 6 6 3 2 2 5 13 16 14 11 7 5 2 3 2 1 1 10 8 7 5 8 13 16 6 12 2 12 23 33 36 34
18 19 20 20 20 20 20 18 12 4 6 4 4 5 5 4 3 2 5 14 17 15 11 8 6 2 1 3 6 3 4 14 11 3 14 20 8 6 2 6 19 28 32 33 31
19 19 20 20 20 19 19 16 10 5 6 4 3 6 5 2 1 1 4 11 14 14 12 11 4 1 1 3 1 3 6 14 2 4 10 9 4 3 7 18 23 29 31 31 30
20 20 20 20 20 19 17 14 11 6 5 2 3 6 5 1 1 5 6 8 11 12 12 12 2 3 3 3 3 4 6 7 2 5 3 12 5 3 14 23 25 26 27 27 27
21 20 20 20 19 18 16 13 11 4 2 1 3 4 4 3 4 6 7 9 10 12 8 6 1 5 3 4 5 5 4 2 2 5 4 4 4 1 17 25 23 23 26 27 28
21 20 19 19 18 16 14 13 3 1 1 1 3 2 3 6 5 8 10 10 12 11 9 3 3 1 1 3 5 7 1 1 8 5 5 4 3 4 16 19 20 21 23 24 26
22 21 19 18 17 14 11 8 3 2 2 2 4 2 5 3 10 11 10 9 5 4 2 2 2 4 4 5 3 1 3 3 4 3 4 5 4 5 17 20 23 22 22 22 23
22 21 19 17 15 11 7 2 3 2 6 6 2 2 3 5 13 12 11 9 5 3 2 3 4 6 9 6 4 2 3 2 3 2 5 3 6 5 16 18 18 22 25 27 28
22 21 19 16 13 6 2 2 5 7 8 9 13 17 14 5 8 12 14 7 5 4 4 5 6 9 3 5 4 4 2 2 2 5 5 5 3 4 3 9 23 26 28 29 28
22 21 19 14 13 5 3 3 6 6 2 7 10 14 13 12 7 16 17 10 4 5 5 6 5 7 5 3 3 1 3 2 4 2 7 8 5 2 2 6 13 17 24 27 27
23 21 19 14 4 5 5 1 4 2 4 6 6 7 13 9 4 14 21 12 2 9 7 5 5 3 3 4 6 2 4 3 3 3 4 2 4 5 4 3 6 13 19 22 21
23 22 18 14 11 7 7 2 2 1 2 4 5 6 16 13 7 12 24 12 7 6 5 6 2 2 3 4 6 4 3 4 3 5 4 3 4 7 8 8 12 15 20 21 20
22 21 19 15 11 7 8 3 3 5 6 3 7 7 7 7 3 6 9 9 3 4 2 5 3 3 6 3 1 7 6 8 5 4 2 2 4 5 7 24 11 15 25 23 22
23 20 20 15 6 7 7 5 4 3 4 4 5 5 3 5 3 4 6 5 6 4 2 4 2 4 3 5 3 5 6 4 5 4 5 1 2 8 7 7 15 23 30 26 24
24 21 18 14 11 12 7 4 4 4 6 3 4 4 8 5 5 4 6 5 3 5 3 5 5 4 2 5 7 2 7 5 3 2 5 3 5 5 6 16 19 27 35 31 27
25 19 13 9 13 13 10 3 8 7 3 4 3 4 4 3 5 4 7 6 8 8 7 5 4 3 1 3 5 4 3 4 7 3 2 3 6 5 6 5 19 27 29 33 29
26 18 5 8 15 20 4 6 5 4 4 2 6 4 9 7 6 6 7 5 6 9 6 4 2 1 4 5 9 5 6 4 3 2 3 5 5 5 2 5 7 19 25 31 30
19 7 7 11 21 12 5 7 5 8 3 3 2 3 4 7 9 6 8 4 5 5 7 6 4 5 1 2 7 2 2 7 5 4 5 1 6 6 6 9 10 15 29 33 33
8 2 3 22 4 1 4 6 3 3 2 3 2 4 6 6 5 5 8 6 3 11 9 6 6 4 7 3 3 2 5 6 5 5 1 4 6 3 6 12 20 21 30 30 30
17 5 2 10 3 2 4 3 3 3 4 2 3 5 2 6 4 4 5 2 5 6 10 8 0 3 7 6 2 3 3 5 5 3 6 6 6 3 4 9 16 21 24 28 28
7 3 1 5 3 3 2 3 3 5 5 4 4 2 2 2 5 6 2 3 3 3 8 8 4 7 10 8 5 5 4 4 4 4 5 6 4 4 2 6 12 25 32 33 31
4 1 1 3 3 3 1 3 1 3 3 2 2 2 5 4 2 2 1 1 4 3 4 4 4 3 2 3 3 6 7 7 5 5 6 3 6 6 5 9 19 30 33 30 30
5 4 5 3 6 2 3 1 2 5 2 5 2 1 4 6 7 9 5 2 3 4 3 4 2 2 2 2 3 4 5 7 4 4 3 2 6 7 9 8 18 30 33 33 29
4 3 4 3 3 2 1 2 1 3 5 3 1 3 6 4 6 7 3 5 3 5 3 3 6 3 3 2 2 4 7 7 4 4 6 5 9 4 5 12 26 34 34 30 27
Wind_Direction
0 357 355 355 355 357 344 332 328 304 285 272 265 264 265 266 263 257 250 239 227 233 202 168 176 119 31 23 24 353 48 352 317 190 164 174 126 154 135 141 61 36 149 159 155
356 353 351 351 352 353 349 334 331 312 297 279 264 258 263 271 276 265 242 229 213 209 208 175 109 72 41 35 32 73 90 244 214 162 262 186 151 152 123 140 65 99 134 154 160
350 348 348 347 348 348 348 337 327 316 307 292 265 250 254 275 292 251 226 207 196 195 210 204 135 23 33 14 81 83 195 244 272 258 230 164 137 169 143 220 186 154 156 163 167
346 344 344 344 344 344 345 341 328 312 311 296 261 238 238 251 190 265 222 195 186 186 184 165 161 64 55 8 242 338 248 263 296 340 140 160 144 161 171 311 180 168 171 167 172
342 341 340 340 341 341 342 343 340 322 323 307 252 212 216 236 269 28 178 179 184 191 187 165 158 131 334 297 336 177 282 322 322 330 157 152 170 160 242 133 156 164 171 172 174
337 338 337 336 337 338 339 342 346 336 339 330 223 193 197 258 189 220 158 176 181 187 183 171 169 64 304 250 222 262 297 304 317 129 152 137 123 117 142 153 154 166 175 180 179
333 334 334 333 333 335 336 334 337 326 343 6 172 184 211 276 161 172 178 184 186 183 183 178 191 352 300 280 298 324 350 332 165 147 96 100 46 310 165 162 158 167 178 186 189
329 330 331 331 330 333 333 330 322 296 330 6 168 191 237 218 192 189 185 173 173 172 152 166 261 275 235 309 3 44 51 47 179 152 125 137 207 323 165 164 161 171 179 193 199
325 327 329 329 327 332 331 334 338 296 268 278 208 214 241 212 194 161 145 147 147 160 177 189 307 221 1 71 13 11 360 8 322 223 128 93 192 171 172 171 172 174 184 201 209
323 324 326 327 324 330 328 331 333 292 251 267 230 271 225 195 185 165 148 136 129 145 182 205 57 48 35 73 209 236 311 260 244 232 65 117 140 151 173 173 188 195 192 200 214
321 322 324 327 319 325 332 324 319 294 261 241 204 244 112 172 188 186 184 183 181 96 134 43 74 223 227 197 172 194 222 227 239 196 98 171 148 152 169 181 191 203 205 212 222
322 321 321 326 315 297 320 49 19 306 301 272 245 245 230 239 183 197 197 172 152 165 117 32 235 229 182 212 229 208 169 260 284 19 100 104 59 72 127 195 201 208 211 214 219
322 321 320 327 313 223 260 140 353 334 277 280 229 228 219 216 202 200 194 190 153 146 173 167 225 112 171 187 149 129 162 149 137 102 53 99 7 143 168 183 210 213 225 219 222
321 320 321 328 305 238 208 244 346 309 46 267 217 220 186 172 219 192 194 174 195 191 160 228 270 229 151 189 136 179 186 148 114 95 166 61 236 250 201 216 223 212 209 204 201
320 319 316 315 292 277 204 259 316 248 346 198 178 178 175 170 148 189 195 191 171 184 116 251 281 167 138 209 154 205 67 40 54 77 101 344 89 262 154 213 210 215 211 201 189
316 316 308 306 285 251 222 223 183 46 253 216 146 157 128 187 173 129 165 195 185 157 356 244 265 199 193 89 122 143 76 41 50 66 31 244 133 263 194 215 182 189 204 188 179
313 309 299 285 268 179 184 176 50 163 310 197 173 152 133 158 205 136 146 177 156 110 251 332 272 305 145 101 81 88 60 2 11 12 219 100 41 243 265 279 189 179 193 184 175
314 308 291 269 248 213 190 68 192 233 246 324 99 85 169 152 231 164 124 174 205 100 113 157 307 179 187 172 168 87 137 146 201 218 266 224 239 271 257 272 207 184 187 182 179
319 315 296 256 215 191 174 119 209 211 290 356 32 120 206 188 162 143 180 199 191 163 168 145 268 282 193 129 119 180 88 152 103 21 35 284 296 309 13 65 141 165 185 184 182
327 321 281 234 191 178 101 229 237 225 325 17 206 157 179 186 154 153 172 216 202 182 151 197 138 114 149 110 47 131 150 76 17 153 271 302 284 249 199 171 171 174 177 185 188
330 324 322 163 154 168 166 225 264 267 274 202 270 173 190 165 167 171 204 269 186 159 134 140 114 281 92 178 171 86 83 54 110 123 163 252 274 225 226 196 186 184 186 190 194
347 358 143 153 100 50 163 197 218 279 296 279 228 221 175 160 139 169 195 225 145 153 162 194 140 183 199 290 253 124 150 136 127 221 185 158 266 327 263 184 183 188 196 197 197
333 296 107 202 150 243 270 257 236 252 242 270 266 202 186 159 140 189 200 91 163 157 165 181 223 77 358 358 357 112 116 99 108 90 189 145 259 6 72 157 185 176 185 190 191
334 353 359 184 74 150 160 232 252 252 252 250 261 123 108 115 27 167 156 25 351 97 111 114 117 166 199 196 146 142 138 138 124 124 175 219 273 305 173 201 178 184 186 184 181
341 322 5 311 6 12 36 351 23 337 288 300 240 219 177 125 64 148 140 341 76 31 62 110 129 143 65 124 115 154 166 170 175 169 163 238 201 269 246 214 202 187 180 179 186
355 358 339 283 308 284 350 67 36 329 277 298 229 264 153 157 177 195 150 189 190 33 74 357 147 113 69 2 164 171 174 191 188 153 280 181 264 229 269 220 196 195 186 189 190
350 338 321 329 339 111 280 301 131 357 248 305 182 103 84 144 130 109 118 118 134 151 114 79 130 101 202 2 54 342 205 194 182 167 152 200 237 178 227 214 200 193 194 190 197
Height
1518 1516 1514 1511 1507 1504 1501 1499 1497 1496 1495 1494 1494 1493 1492 1492 1492 1492 1492 1495 1496 1498 1499 1501 1501 1501 1502 1503 1504 1505 1515 1521 1513 1513 1506 1503 1505 1508 1510 1512 1514 1515 1515 1519 1524
1518 1516 1513 1510 1507 1504 1501 1498 1496 1494 1493 1492 1492 1492 1491 1491 1491 1489 1491 1491 1494 1496 1498 1500 1501 1502 1502 1503 1504 1505 1520 1512 1503 1504 1502 1504 1502 1506 1511 1513 1516 1516 1519 1522 1526
1518 1515 1512 1509 1506 1503 1500 1497 1494 1493 1492 1491 1490 1490 1491 1491 1491 1488 1487 1489 1493 1496 1498 1500 1502 1503 1503 1504 1506 1507 1513 1504 1495 1499 1499 1503 1506 1507 1510 1513 1512 1513 1518 1523 1527
1517 1514 1511 1508 1505 1502 1498 1495 1492 1491 1490 1489 1489 1489 1490 1491 1494 1487 1487 1488 1492 1495 1498 1500 1502 1503 1504 1507 1505 1509 1504 1503 1498 1498 1497 1504 1505 1507 1509 1509 1510 1514 1516 1520 1527
1515 1512 1510 1507 1504 1501 1497 1494 1491 1489 1489 1488 1488 1488 1489 1490 1488 1487 1487 1488 1492 1495 1498 1500 1502 1503 1505 1505 1504 1506 1503 1500 1499 1497 1500 1502 1504 1505 1509 1510 1511 1517 1521 1524 1529
1514 1511 1508 1505 1502 1499 1496 1493 1491 1489 1488 1487 1487 1488 1489 1490 1488 1488 1488 1490 1493 1495 1498 1500 1502 1504 1504 1505 1507 1504 1501 1499 1499 1499 1501 1502 1506 1506 1513 1512 1515 1519 1524 1527 1530
1512 1509 1507 1504 1501 1498 1495 1492 1490 1489 1488 1487 1487 1488 1489 1488 1487 1487 1489 1491 1493 1496 1498 1501 1503 1504 1505 1504 1503 1502 1503 1499 1498 1499 1501 1503 1511 1512 1512 1514 1518 1523 1528 1532 1534
1510 1507 1505 1502 1499 1496 1493 1491 1489 1488 1488 1488 1488 1489 1487 1486 1487 1487 1488 1490 1493 1496 1499 1501 1503 1503 1503 1502 1502 1505 1509 1515 1501 1498 1503 1506 1524 1514 1515 1516 1520 1524 1528 1530 1532
1508 1505 1503 1500 1497 1495 1492 1489 1488 1487 1488 1488 1489 1488 1486 1486 1486 1487 1489 1491 1494 1497 1499 1501 1502 1502 1501 1507 1516 1518 1522 1517 1510 1499 1501 1507 1521 1515 1518 1521 1522 1525 1528 1530 1534
1505 1503 1500 1498 1495 1493 1491 1488 1487 1487 1487 1487 1488 1491 1486 1485 1486 1488 1490 1492 1494 1497 1499 1500 1500 1504 1508 1515 1535 1521 1521 1518 1517 1502 1502 1510 1516 1515 1518 1521 1521 1525 1529 1530 1532
1503 1500 1498 1496 1493 1492 1490 1488 1490 1489 1485 1484 1484 1483 1483 1485 1486 1489 1490 1493 1494 1497 1502 1501 1509 1516 1506 1508 1507 1509 1514 1516 1505 1499 1505 1512 1516 1517 1518 1521 1523 1524 1526 1528 1529
1500 1497 1495 1493 1491 1490 1490 1489 1489 1490 1483 1478 1479 1480 1481 1484 1486 1487 1490 1493 1494 1500 1500 1507 1514 1499 1502 1504 1507 1510 1511 1512 1504 1501 1504 1518 1522 1520 1520 1521 1521 1522 1525 1526 1528
1497 1494 1492 1490 1488 1488 1488 1489 1488 1487 1485 1475 1474 1475 1478 1481 1482 1484 1488 1490 1492 1500 1502 1510 1500 1495 1499 1500 1505 1506 1510 1507 1507 1505 1509 1517 1530 1525 1522 1522 1522 1524 1525 1526 1526
1495 1492 1489 1488 1489 1486 1487 1488 1488 1487 1498 1478 1471 1471 1474 1477 1480 1481 1484 1489 1491 1496 1500 1502 1491 1493 1495 1499 1502 1509 1498 1500 1504 1514 1536 1517 1554 1532 1526 1524 1523 1524 1525 1525 1526
1492 1489 1487 1486 1485 1485 1486 1486 1487 1488 1520 1468 1467 1467 1469 1474 1475 1477 1482 1486 1490 1492 1496 1498 1491 1491 1494 1493 1495 1502 1497 1503 1506 1520 1524 1527 1544 1531 1525 1529 1522 1523 1524 1525 1525
1488 1486 1483 1483 1482 1483 1483 1485 1487 1504 1514 1468 1462 1466 1470 1470 1473 1476 1479 1484 1485 1489 1490 1491 1486 1486 1487 1490 1492 1496 1504 1516 1525 1535 1550 1529 1536 1534 1526 1504 1514 1519 1522 1523 1524
1483 1482 1479 1479 1479 1480 1481 1485 1503 1513 1468 1467 1466 1464 1468 1473 1473 1473 1479 1485 1494 1506 1504 1492 1488 1484 1484 1492 1494 1500 1518 1552 1550 1560 1557 1532 1541 1524 1505 1502 1503 1507 1516 1520 1524
1477 1475 1473 1473 1474 1477 1480 1486 1506 1480 1475 1458 1461 1466 1473 1471 1473 1474 1481 1490 1486 1491 1511 1512 1515 1487 1482 1488 1499 1505 1513 1548 1553 1564 1551 1536 1539 1515 1499 1497 1499 1507 1512 1518 1522
1471 1469 1467 1468 1469 1474 1478 1498 1490 1477 1463 1463 1463 1470 1473 1469 1471 1474 1481 1485 1481 1483 1503 1511 1505 1482 1483 1484 1489 1505 1519 1516 1548 1557 1557 1544 1524 1505 1499 1497 1498 1504 1511 1515 1521
1467 1464 1463 1463 1465 1471 1478 1488 1476 1466 1463 1462 1472 1465 1479 1473 1475 1478 1483 1470 1475 1475 1478 1490 1504 1485 1484 1484 1490 1493 1504 1528 1541 1551 1554 1550 1539 1529 1507 1504 1503 1504 1508 1514 1518
1466 1462 1461 1461 1465 1469 1483 1482 1470 1462 1463 1463 1463 1464 1465 1468 1472 1480 1478 1467 1465 1473 1475 1485 1496 1496 1486 1492 1498 1504 1512 1526 1533 1545 1557 1562 1542 1505 1502 1501 1502 1503 1506 1509 1513
1466 1465 1462 1462 1467 1472 1476 1470 1465 1462 1461 1460 1459 1459 1461 1462 1467 1472 1473 1466 1463 1465 1479 1479 1495 1509 1497 1490 1490 1491 1501 1512 1536 1539 1550 1549 1538 1497 1495 1495 1498 1502 1503 1507 1512
1468 1463 1463 1463 1471 1473 1467 1464 1462 1462 1460 1458 1457 1454 1455 1460 1468 1465 1465 1461 1461 1464 1470 1475 1500 1520 1512 1501 1491 1494 1499 1509 1519 1528 1542 1546 1531 1495 1494 1495 1497 1499 1503 1507 1510
1472 1469 1463 1463 1464 1465 1464 1463 1462 1458 1458 1457 1455 1454 1456 1460 1463 1467 1464 1461 1461 1462 1463 1466 1494 1496 1504 1499 1495 1499 1498 1505 1510 1530 1532 1531 1511 1498 1495 1497 1496 1497 1499 1503 1507
1474 1473 1473 1471 1466 1466 1466 1466 1464 1463 1458 1456 1454 1455 1457 1465 1466 1465 1465 1464 1463 1464 1465 1468 1488 1487 1488 1485 1486 1492 1495 1500 1503 1508 1515 1510 1514 1500 1495 1494 1494 1494 1497 1502 1505
1476 1476 1473 1469 1468 1467 1467 1468 1464 1464 1462 1458 1455 1454 1454 1462 1460 1468 1463 1464 1463 1464 1468 1472 1491 1485 1495 1490 1489 1493 1493 1495 1496 1502 1503 1504 1507 1491 1490 1490 1493 1495 1495 1497 1501
1476 1476 1476 1472 1469 1469 1470 1468 1464 1466 1458 1458 1455 1456 1458 1458 1456 1457 1459 1460 1461 1465 1472 1478 1490 1498 1503 1496 1494 1505 1494 1493 1492 1491 1495 1505 1494 1489 1489 1487 1485 1487 1490 1495 1500